Вернуться в каталог

ZHANGJIANG GAOKE

АктивенПогодаSSO
NORAD 59919·PAYLOAD·🇨🇳 China
Это название спутника еще не подтверждено официальными источниками.

Запущен May 30, 2024 с Jiuquan Satellite Launch Center

Loading…

Ближайшие Пролёты (ближайшие 24 часа)

TLE

СвежийSource: Space-Track

Эпоха: Sep 14, 2026, 22:42 UTC

1 59919U 24105C   26257.94625215  .00002030  00000-0  12359-3 0  9999
2 59919  97.5795 273.8550 0030264 235.7319 124.1045 15.11204267126704

Отслеживайте ZHANGJIANG GAOKE в реальном времени с AllMySat

Download on the App Store